Location: *
(33.8649°S, 62.1526°E)
Time: 07:20:47
(UTC+00:00)

USA 229 - Visible Passes

Search period start: 11 May 2021 00:00
Search period end: 21 May 2021 00:00
Orbit: 958 x 1254 km, 63.4° (Epoch: 23 April)

Date Brightness Start Highest point End Pass type
(mag) Time Alt. Az. Time Alt. Az. Time Alt. Az.
11 May 6.0 00:26:25 10° SSE 00:29:02 12° SE 00:31:35 10° ESE visible
12 May 4.8 01:30:16 10° SSW 01:36:27 38° SE 01:42:18 10° ENE visible
13 May 5.4 00:45:56 10° S 00:51:17 24° SE 00:56:23 10° E visible
13 May 6.1 16:22:01 10° NNW 16:22:49 14° NNW 16:22:49 14° NNW visible
14 May 5.9 00:01:59 10° S 00:05:55 16° SE 00:09:44 10° ESE visible
14 May 3.7 01:51:13 10° SSW 01:57:55 84° ESE 02:04:13 10° NNE visible
14 May 5.4 15:37:44 10° N 15:40:30 23° N 15:40:30 23° N visible
14 May 6.2 23:19:29 10° SSE 23:20:21 10° SSE 23:21:12 10° SE visible
15 May 4.3 01:06:33 10° SSW 01:13:02 51° SE 01:19:10 10° NE visible
15 May 5.1 14:54:07 10° NNE 14:58:10 24° NE 14:58:10 24° NE visible
15 May 5.9 16:43:32 10° NW 16:45:41 20° NW 16:45:41 20° NW visible
16 May 5.0 00:22:54 13° S 00:27:59 32° SE 00:33:34 10° ENE visible
16 May 5.3 14:11:33 10° NE 14:15:51 17° ENE 14:15:51 17° ENE visible
16 May 4.7 15:58:25 10° NNW 16:03:22 43° NW 16:03:22 43° NW visible
16 May 5.6 23:40:10 17° SSE 23:42:44 20° SE 23:47:24 10° E visible
17 May 3.5 01:27:42 10° SW 01:34:20 73° WNW 01:40:35 10° NNE visible
17 May 4.0 15:13:49 10° NNW 15:21:01 61° NE 15:21:01 61° NE visible
17 May 6.1 17:06:22 10° WNW 17:08:31 18° W 17:08:31 18° W visible
17 May 6.0 22:57:30 13° SE 22:57:30 13° SE 23:00:19 10° ESE visible
18 May 3.8 00:45:00 21° SSW 00:49:34 68° ESE 00:55:50 10° NE visible
18 May 4.4 14:29:46 10° N 14:36:50 38° ENE 14:38:37 34° E visible
18 May 5.0 16:20:24 10° WNW 16:26:07 39° W 16:26:07 39° W visible
19 May 4.5 00:02:25 32° S 00:04:37 42° SE 00:10:34 10° ENE visible
19 May 4.4 01:49:55 11° SW 01:55:13 30° WNW 02:00:33 10° N visible
19 May 5.0 13:46:30 10° NNE 13:52:18 23° ENE 13:56:09 16° ESE visible
19 May 4.1 15:34:59 10° NW 15:42:46 67° WSW 15:43:39 62° SSW visible
19 May 6.5 17:30:55 10° WSW 17:31:09 10° WSW 17:31:09 10° WSW visible
19 May 5.3 23:19:55 26° SE 23:19:55 26° SE 23:24:45 10° ENE visible
20 May 3.7 01:07:24 28° SW 01:10:41 52° WNW 01:16:45 10° N visible
20 May 3.8 14:50:05 10° NNW 14:57:55 81° ENE 15:01:06 39° SE visible
20 May 5.8 16:43:48 10° W 16:48:35 22° SW 16:48:35 22° SW visible
20 May 6.2 22:37:27 12° ESE 22:37:27 12° ESE 22:38:16 10° E visible
